sat.trackr.live / text

‹ back to catalog

BEIDOU-3 M4 (C22)

NORAD 43207 · 2018-018A

PAYLOAD ACTIVE UNKNOWN

§ Identity

Operator
Country
PRC
Launch date
2018-02-12
Launch site
XICLF
Launch vehicle
Mass (kg)
RCS (m²)

Purposes: nav

External: N2YO · Heavens-Above · Gunter

§ Orbital elements

Epoch: 2026-09-08T10:18:23.763744Z

Period
773.23 min
Inclination
56.7259°
Eccentricity
0.0006225
Mean motion
1.86230705 rev/d
Perigee alt
21,510.7 km
Apogee alt
21,545.5 km
Semi-major
27,906.2 km
B*
0.0000e+0
RAAN
60.4080°
Arg perigee
42.5156°
Mean anomaly
317.5686°
Rev number
5,829

§ Raw data

BEIDOU-3 M4 (C22)1 43207U 18018A   26251.42944171 -.00000007  00000+0  00000+0 0  99982 43207  56.7259  60.4080 0006225  42.5156 317.5686  1.86230705 58290

JSON: /api/v1/satellites/43207 · /tle

For live sub-satellite position, see the globe view (requires WebGL).

§ Visibility from observer

Set your observer location to see the next 7 days of passes ≥ 10°. The values pass through the URL so the page stays shareable.

No JS? Fill the form by hand. The geolocation button needs JavaScript.